| time (UTC) | temp F | wind direction | speed knots | gust knots | rain 1hr in | rain 24hr in | rain mn in | humidity % | barometer mb |
| 20260509173639 | 53 | 190 | 3.5 | 7.8 | 0.00 | 0.00 | 0.00 | 87 | 1008.5 |
| 20260509172142 | 52 | 197 | 2.6 | 7.0 | 0.00 | 0.00 | 0.00 | 88 | 1008.6 |
| 20260509170639 | 52 | 200 | 2.6 | 7.8 | 0.00 | 0.00 | 0.00 | 88 | 1008.7 |
| 20260509165144 | 52 | 188 | 3.5 | 11.3 | 0.00 | 0.00 | 0.00 | 88 | 1008.9 |
| 20260509163634 | 52 | 135 | 3.5 | 7.8 | 0.00 | 0.00 | 0.00 | 88 | 1008.7 |
| 20260509162135 | 52 | 192 | 2.6 | 8.7 | 0.00 | 0.00 | 0.00 | 89 | 1009.0 |
| 20260509160635 | 51 | 196 | 3.5 | 10.4 | 0.00 | 0.00 | 0.00 | 89 | 1009.4 |
| 20260509155113 | 51 | 185 | 2.6 | 2.6 | 0.00 | 0.00 | 0.00 | 90 | 1009.5 |
| 20260509153613 | 50 | 204 | 2.6 | 7.8 | 0.00 | 0.00 | 0.00 | 91 | 1009.4 |
| 20260509152056 | 50 | 177 | 1.7 | 6.1 | 0.00 | 0.00 | 0.00 | 91 | 1009.6 |
| 20260509150553 | 50 | 203 | 1.7 | 7.0 | 0.00 | 0.00 | 0.00 | 92 | 1009.8 |
| 20260509145053 | 50 | 143 | 1.7 | 4.3 | 0.00 | 0.00 | 0.00 | 92 | 1009.8 |
| 20260509143555 | 50 | 148 | 1.7 | 7.8 | 0.00 | 0.00 | 0.00 | 92 | 1009.8 |
| 20260509142052 | 50 | 175 | 2.6 | 6.1 | 0.00 | 0.00 | 0.00 | 92 | 1009.8 |
| 20260509140551 | 49 | 184 | 1.7 | 6.1 | 0.00 | 0.00 | 0.00 | 93 | 1010.0 |
| 20260509135051 | 49 | 206 | 1.7 | 6.1 | 0.00 | 0.00 | 0.00 | 92 | 1010.0 |
| 20260509133551 | 49 | 148 | 2.6 | 8.7 | 0.00 | 0.00 | 0.00 | 92 | 1010.1 |
| 20260509132053 | 48 | 157 | 4.3 | 9.6 | 0.00 | 0.00 | 0.00 | 93 | 1010.0 |
| 20260509131242 | 48 | 289 | 2.6 | 7.0 | 0.00 | 0.00 | 0.00 | 93 | 1010.1 |
| 20260509125050 | 47 | 230 | 1.7 | 6.1 | 0.00 | 0.00 | 0.00 | 93 | 1010.1 |
| 20260509123551 | 47 | 201 | 1.7 | 5.2 | 0.00 | 0.00 | 0.00 | 93 | 1010.1 |
| 20260509122046 | 47 | 146 | 2.6 | 7.0 | 0.00 | 0.00 | 0.00 | 92 | 1010.3 |
| 20260509120545 | 47 | 148 | 2.6 | 7.8 | 0.00 | 0.00 | 0.00 | 91 | 1010.5 |
| 20260509115044 | 46 | 151 | 1.7 | 5.2 | 0.00 | 0.00 | 0.00 | 90 | 1010.7 |
| 20260509113542 | 46 | 123 | 2.6 | 7.0 | 0.00 | 0.00 | 0.00 | 89 | 1010.6 |
| 20260509112047 | 46 | 138 | 1.7 | 7.0 | 0.00 | 0.00 | 0.00 | 88 | 1010.7 |
| 20260509110545 | 45 | 147 | 1.7 | 5.2 | 0.00 | 0.00 | 0.00 | 87 | 1010.5 |
| 20260509105045 | 45 | 197 | 1.7 | 4.3 | 0.00 | 0.00 | 0.00 | 87 | 1010.3 |
| 20260509104952 | 45 | 167 | 1.7 | 4.3 | 0.00 | 0.00 | 0.00 | 87 | 1010.2 |
| 20260509102045 | 45 | 153 | 0.9 | 5.2 | 0.00 | 0.00 | 0.00 | 86 | 1010.4 |
| 20260509100543 | 45 | 179 | 1.7 | 4.3 | 0.00 | 0.00 | 0.00 | 86 | 1010.2 |
| 20260509095044 | 45 | 144 | 0.9 | 4.3 | 0.00 | 0.00 | 0.00 | 85 | 1010.1 |
| 20260509093526 | 45 | 113 | 1.7 | 3.5 | 0.00 | 0.00 | 0.00 | 85 | 1010.0 |
| 20260509092026 | 45 | 130 | 0.9 | 2.6 | 0.00 | 0.00 | 0.00 | 84 | 1009.8 |
| 20260509090524 | 45 | 202 | 0.9 | 3.5 | 0.00 | 0.00 | 0.00 | 83 | 1010.2 |
| 20260509085719 | 45 | 173 | 1.7 | 3.5 | 0.00 | 0.00 | 0.00 | 83 | 1010.3 |
| 20260509083521 | 45 | 140 | 0.9 | 4.3 | 0.00 | 0.00 | 0.00 | 83 | 1010.6 |
| 20260509082023 | 44 | 119 | 0.9 | 2.6 | 0.00 | 0.00 | 0.00 | 84 | 1010.6 |
| 20260509081901 | 44 | 116 | 1.7 | 3.5 | 0.00 | 0.00 | 0.00 | 82 | 1010.7 |
| 20260509075019 | 44 | 109 | 0.9 | 2.6 | 0.00 | 0.00 | 0.00 | 82 | 1010.6 |
| 20260509073518 | 43 | 277 | 0.9 | 2.6 | 0.00 | 0.00 | 0.00 | 80 | 1010.8 |
| 20260509072719 | 42 | 176 | 0.9 | 1.7 | 0.00 | 0.00 | 0.00 | 80 | 1010.9 |
| 20260509070107 | 40 | 65 | 0.9 | 2.6 | 0.00 | 0.00 | 0.00 | 82 | 1010.9 |
| 20260509064608 | 40 | 65 | 0.9 | 2.6 | 0.00 | 0.00 | 0.00 | 84 | 1011.0 |
| 20260509063107 | 41 | 85 | 0.9 | 1.7 | 0.00 | 0.00 | 0.00 | 84 | 1011.1 |
| 20260509061605 | 41 | 355 | 1.7 | 2.6 | 0.00 | 0.00 | 0.00 | 81 | 1011.4 |
| 20260509054605 | 42 | 70 | 0.9 | 1.7 | 0.00 | 0.00 | 0.00 | 85 | 1011.7 |
| 20260509053103 | 41 | 70 | 0.9 | 1.7 | 0.00 | 0.00 | 0.00 | 86 | 1011.9 |
| 20260509051604 | 42 | 70 | 0.9 | 3.5 | 0.00 | 0.00 | 0.00 | 86 | 1012.1 |
| 20260509050758 | 42 | 70 | 1.7 | 3.5 | 0.00 | 0.00 | 0.00 | 87 | 1012.1 |
| 20260509045316 | 40 | 61 | 0.0 | 1.7 | 0.00 | 0.00 | 0.00 | 89 | 1012.4 |
| 20260509043103 | 41 | 61 | 0.9 | 1.7 | 0.00 | 0.00 | 0.00 | 91 | 1012.4 |
| 20260509041605 | 40 | 61 | 0.9 | 2.6 | 0.00 | 0.00 | 0.00 | 90 | 1012.6 |
| 20260509040104 | 39 | 61 | 0.9 | 1.7 | 0.00 | 0.00 | 0.00 | 88 | 1012.6 |
| 20260509034603 | 38 | 61 | 0.9 | 3.5 | 0.00 | 0.00 | 0.06 | 88 | 1012.6 |
| 20260509033104 | 38 | 86 | 0.9 | 2.6 | 0.00 | 0.00 | 0.06 | 87 | 1012.7 |
| 20260509032310 | 39 | 63 | 1.7 | 2.6 | 0.00 | 0.00 | 0.06 | 88 | 1012.4 |
| 20260509030104 | 39 | 63 | 0.9 | 3.5 | 0.00 | 0.00 | 0.06 | 87 | 1012.7 |
| 20260509024545 | 39 | 51 | 0.9 | 2.6 | 0.00 | 0.00 | 0.06 | 87 | 1012.9 |
| 20260509023044 | 39 | 61 | 0.9 | 2.6 | 0.00 | 0.00 | 0.06 | 86 | 1013.0 |
| 20260509021545 | 40 | 61 | 1.7 | 2.6 | 0.00 | 0.00 | 0.06 | 85 | 1013.1 |
| 20260509020043 | 40 | 59 | 0.9 | 1.7 | 0.00 | 0.00 | 0.06 | 82 | 1013.0 |
| 20260509014545 | 40 | 58 | 0.0 | 1.7 | 0.00 | 0.00 | 0.06 | 83 | 1012.7 |
| 20260509013043 | 41 | 58 | 1.7 | 2.6 | 0.00 | 0.00 | 0.06 | 83 | 1012.6 |
| 20260509012245 | 42 | 67 | 0.9 | 1.7 | 0.00 | 0.00 | 0.06 | 82 | 1012.4 |
| 20260509010043 | 43 | 67 | 0.9 | 1.7 | 0.00 | 0.00 | 0.06 | 80 | 1012.2 |
| 20260509005247 | 44 | 205 | 0.0 | 1.7 | 0.00 | 0.00 | 0.06 | 75 | 1011.9 |
| 20260509003040 | 46 | 205 | 0.0 | 0.9 | 0.00 | 0.00 | 0.06 | 74 | 1011.9 |
| 20260509001542 | 48 | 205 | 0.9 | 0.9 | 0.00 | 0.00 | 0.06 | 64 | 1011.7 |
| 20260509000040 | 50 | 205 | 0.0 | 0.9 | 0.00 | 0.00 | 0.06 | 65 | 1011.8 |
| 20260508234544 | 51 | 205 | 0.0 | 2.6 | 0.00 | 0.00 | 0.06 | 60 | 1011.5 |
| 20260508233038 | 51 | 265 | 0.9 | 4.3 | 0.00 | 0.00 | 0.06 | 59 | 1011.5 |
| 20260508232233 | 52 | 181 | 1.7 | 3.5 | 0.00 | 0.00 | 0.06 | 57 | 1011.5 |
| 20260508230033 | 52 | 13 | 1.7 | 5.2 | 0.00 | 0.00 | 0.06 | 58 | 1011.6 |
| 20260508224536 | 52 | 348 | 1.7 | 4.3 | 0.00 | 0.00 | 0.06 | 57 | 1011.5 |
| 20260508223023 | 51 | 24 | 4.3 | 8.7 | 0.00 | 0.04 | 0.06 | 56 | 1011.6 |
| 20260508221520 | 52 | 294 | 3.5 | 8.7 | 0.00 | 0.04 | 0.06 | 56 | 1011.7 |
| 20260508220713 | 52 | 12 | 3.5 | 7.0 | 0.00 | 0.04 | 0.06 | 57 | 1011.7 |
| 20260508214455 | 52 | 193 | 3.5 | 10.4 | 0.00 | 0.04 | 0.06 | 56 | 1011.8 |
| 20260508213658 | 51 | 355 | 4.3 | 13.0 | 0.00 | 0.04 | 0.06 | 59 | 1011.7 |
| 20260508211454 | 52 | 283 | 4.3 | 11.3 | 0.00 | 0.04 | 0.06 | 59 | 1011.9 |
| 20260508205953 | 52 | 225 | 3.5 | 10.4 | 0.00 | 0.04 | 0.06 | 61 | 1012.1 |
| 20260508204455 | 51 | 291 | 4.3 | 12.2 | 0.00 | 0.04 | 0.06 | 61 | 1012.2 |
| 20260508202954 | 51 | 315 | 5.2 | 13.9 | 0.00 | 0.04 | 0.06 | 64 | 1012.2 |
| 20260508201455 | 50 | 310 | 7.8 | 13.9 | 0.00 | 0.04 | 0.06 | 60 | 1012.1 |
| 20260508195953 | 50 | 200 | 6.1 | 13.9 | 0.00 | 0.04 | 0.06 | 63 | 1012.6 |
| 20260508194455 | 50 | 311 | 7.0 | 14.8 | 0.00 | 0.04 | 0.06 | 66 | 1012.5 |
| 20260508193641 | 49 | 317 | 7.0 | 12.2 | 0.00 | 0.04 | 0.06 | 66 | 1012.6 |
| 20260508191454 | 49 | 284 | 5.2 | 12.2 | 0.00 | 0.04 | 0.06 | 67 | 1012.6 |
| 20260508191354 | 48 | 275 | 5.2 | 9.6 | 0.00 | 0.04 | 0.06 | 70 | 1012.8 |
| 20260508184451 | 46 | 274 | 5.2 | 10.4 | 0.00 | 0.04 | 0.06 | 72 | 1013.0 |
| 20260508182950 | 47 | 287 | 7.0 | 13.0 | 0.00 | 0.04 | 0.06 | 73 | 1013.1 |
| 20260508181452 | 46 | 267 | 4.3 | 11.3 | 0.00 | 0.04 | 0.06 | 76 | 1013.1 |
| 20260508181347 | 46 | 275 | 5.2 | 13.9 | 0.00 | 0.04 | 0.06 | 80 | 1013.2 |
| 20260508174450 | 46 | 243 | 3.5 | 10.4 | 0.00 | 0.04 | 0.06 | 81 | 1013.1 |